TimeCST,TemperatureF,Dew PointF,Humidity,Sea Level PressureIn,VisibilityMPH,Wind Direction,Wind SpeedMPH,Gust SpeedMPH,PrecipitationIn,Events,Conditions,WindDirDegrees,DateUTC
12:53 AM,46.9,46.0,97,30.15,8.0,Calm,Calm,-,N/A,,Clear,0,2012-12-15 06:53:00
1:53 AM,46.0,45.0,96,30.15,7.0,Calm,Calm,-,N/A,,Clear,0,2012-12-15 07:53:00
2:53 AM,46.0,44.1,93,30.16,6.0,Calm,Calm,-,N/A,,Clear,0,2012-12-15 08:53:00
3:53 AM,46.0,45.0,96,30.17,7.0,Calm,Calm,-,N/A,,Clear,0,2012-12-15 09:53:00
4:53 AM,45.0,45.0,100,30.17,8.0,Calm,Calm,-,N/A,,Clear,0,2012-12-15 10:53:00
5:53 AM,46.0,45.0,96,30.18,7.0,SW,3.5,-,N/A,,Clear,230,2012-12-15 11:53:00
6:53 AM,46.9,46.0,97,30.17,7.0,NE,4.6,-,N/A,,Clear,40,2012-12-15 12:53:00
7:53 AM,48.9,48.0,97,30.19,8.0,East,5.8,-,N/A,,Clear,90,2012-12-15 13:53:00
8:53 AM,54.0,51.1,90,30.20,10.0,Calm,Calm,-,N/A,,Clear,0,2012-12-15 14:53:00
9:53 AM,57.9,50.0,75,30.20,10.0,Variable,3.5,-,N/A,,Clear,0,2012-12-15 15:53:00
10:53 AM,62.1,51.1,67,30.18,10.0,Variable,3.5,-,N/A,,Scattered Clouds,0,2012-12-15 16:53:00
11:53 AM,64.0,51.1,63,30.14,10.0,East,5.8,-,N/A,,Clear,90,2012-12-15 17:53:00
12:53 PM,66.0,53.1,63,30.12,10.0,East,6.9,-,N/A,,Clear,80,2012-12-15 18:53:00
1:53 PM,66.9,53.1,61,30.08,10.0,SSE,4.6,-,N/A,,Clear,150,2012-12-15 19:53:00
2:53 PM,68.0,53.1,59,30.08,10.0,Calm,Calm,-,N/A,,Clear,0,2012-12-15 20:53:00
3:53 PM,66.9,54.0,63,30.08,10.0,Calm,Calm,-,N/A,,Clear,0,2012-12-15 21:53:00
4:53 PM,61.0,55.0,81,30.09,10.0,Calm,Calm,-,N/A,,Clear,0,2012-12-15 22:53:00
5:53 PM,62.1,55.0,78,30.07,10.0,Calm,Calm,-,N/A,,Clear,0,2012-12-15 23:53:00
6:53 PM,57.9,54.0,87,30.09,10.0,Calm,Calm,-,N/A,,Clear,0,2012-12-16 00:53:00
7:53 PM,55.0,53.1,93,30.08,10.0,Calm,Calm,-,N/A,,Clear,0,2012-12-16 01:53:00
8:53 PM,55.0,53.1,93,30.07,9.0,Calm,Calm,-,N/A,,Partly Cloudy,0,2012-12-16 02:53:00
9:53 PM,53.1,51.1,93,30.08,8.0,Calm,Calm,-,N/A,,Clear,0,2012-12-16 03:53:00
10:53 PM,53.1,52.0,96,30.06,8.0,Calm,Calm,-,N/A,,Clear,0,2012-12-16 04:53:00
11:53 PM,51.1,50.0,96,30.07,6.0,Calm,Calm,-,N/A,,Clear,0,2012-12-16 05:53:00